Regional Weather Roundup
Issued by NWS

Home | Current Version | Previous Version | Text Only | Print | Product List | Glossary On
Versions: 1 2 3 4 5 6 7 8 9 10 11 12 13 14 15 16 17 18 19 20 21 22 23 24 25 26 27 28 29 30 31 32 33 34 35 36 37 38 39 40 41 42 43 44 45 46 47 48 49 50
000
ASCA44 KEWX 140520
RWRMX

LATIN AMERICA AND CARIBBEAN REGIONAL WEATHER ROUNDUP
NATIONAL WEATHER SERVICE AUSTIN/SAN ANTONIO TX
1100 PM CST SAT FEB 13 2016

NOTE: "FAIR" INDICATED FEW OR NO CLOUDS BELOW 12,000 FEET WITH NO
SIGNIFICANT WEATHER AND/OR OBSTRUCTIONS TO VISIBILITY.

BAJA CALIFORNIA

CITY           SKY/WX    TMP DP  RH WIND       PRES   REMARKS
LA PAZ         PTCLDY    66  48  52 W7        29.97S
MEXICALI       CLEAR     64  27  24 NW7       30.00R
S.J. DEL CABO  PTCLDY    72  39  30 W12       29.93F
TIJUANA        PTCLDY    55  48  76 CALM      30.08S

NORTHWESTERN MEXICO

CITY           SKY/WX    TMP DP  RH WIND       PRES   REMARKS
CULIACAN       CLEAR     70  64  83 CALM      29.91R
HERMOSILLO     PTCLDY    70  32  24 CALM      29.95R
CD. JUAREZ     PTCLDY    55  23  28 SW5       30.05F
LOS MOCHIS       N/A    N/A N/A N/A MISG        N/A

NORTHEASTERN MEXICO

CITY           SKY/WX    TMP DP  RH WIND       PRES   REMARKS
CHIHUAHUA      CLEAR     48  12  23 SW6       30.14R WCI  46
MONTERREY      CLEAR     61  50  67 E12       30.11F
SALTILLO       CLEAR     61  39  44 N7        30.28S

WESTERN MEXICO

CITY           SKY/WX    TMP DP  RH WIND       PRES   REMARKS
AGUASCALIENTES CLEAR     54  14  20 NE20      30.28S
DEL BAJIO      CLEAR     55  23  28 NE14      30.31S
GUADALAJARA    CLEAR     50  25  37 CALM      30.19R
MAZATLAN       PTCLDY    64  63  94 CALM      29.90R
P. VALLARTA    CLEAR     72  70  94 N2        29.91S
ZACATECAS      CLEAR     52  18  25 SW7       30.31R

CENTRAL MEXICO

CITY           SKY/WX    TMP DP  RH WIND       PRES   REMARKS
MEXICO CITY    CLEAR     54  30  40 W8        30.36R
QUERETARO      CLEAR     43  32  65 E8        30.37R WCI  38
S. LUIS POTOSI CLEAR     46  28  49 S6        30.33S WCI  43
TAMPICO        CLEAR     66  59  77 E7        30.20F
TOLUCA         CLEAR     43  36  75 E3        30.40R

SOUTHERN MEXICO

CITY           SKY/WX    TMP DP  RH WIND       PRES   REMARKS
ACAPULCO       CLEAR     77  70  78 N2        29.90R
VERACRUZ       CLOUDY    66  64  94 W3        30.21S

YUCATAN PENINSULA

CITY           SKY/WX    TMP DP  RH WIND       PRES   REMARKS
CAMPECHE       CLEAR     70  61  73 NE17      30.14S
CANCUN         CLEAR     72  61  68 E8        30.18F
COZUMEL        PTCLDY    70  61  73 E9        30.17F
MERIDA         CLEAR     68  59  73 NE12      30.18F
TAPACHULA      CLEAR     77  72  83 CALM      29.90S
TUX. GUTIERREZ PTCLDY    64  52  63 W5        30.11S
VILLAHERMOSA   PTCLDY    68  66  94 NE5       30.18F

CENTRAL AMERICA

CITY           SKY/WX    TMP DP  RH WIND       PRES   REMARKS
MANAGUA        PTCLDY    79  70  73 NE18      29.89S

CARIBBEAN

CITY           SKY/WX    TMP DP  RH WIND       PRES   REMARKS
ARUBA          PTCLDY    79  72  78 E18       29.89F
CURACAO        PTCLDY    79  73  83 E14       29.92F
KINGSTON       MOCLDY    79  70  73 SW3       29.97S
NASSAU         PTCLDY    73  45  35 N10         N/A
SAN JUAN       PTCLDY    75  70  83 CALM      30.03F
ST. CROIX      CLOUDY    75  64  69 N3        30.02
ST. MAARTEN    PTCLDY    79  68  69 E8        30.00S
ST. THOMAS     MOCLDY    75  66  73 E3        30.01

$$




USA.gov is the U.S. government's official web portal to all federal, state and local government web resources and services.